| time (UTC) | temp C | wind direction | speed KPH | gust KPH | rain 1hr cm | rain 24hr cm | rain mn cm | humidity % | barometer mb |
| 20260507224603 | -17 | 90 | 0.0 | 1.6 | 0.00 | 0.00 | 0.10 | 99 | 1015.1 |
| 20260507224104 | -17 | 122 | 0.0 | 0.0 | 0.00 | 0.00 | 0.10 | 99 | 1015.0 |
| 20260507223602 | -17 | 133 | 0.0 | 1.6 | 0.00 | 0.00 | 0.10 | 99 | 1015.0 |
| 20260507223103 | -17 | 56 | 0.0 | 1.6 | 0.00 | 0.00 | 0.10 | 99 | 1014.7 |
| 20260507222603 | -17 | 34 | 0.0 | 0.0 | 0.00 | 0.00 | 0.10 | 99 | 1014.7 |
| 20260507222103 | -17 | 30 | 0.0 | 0.0 | 0.00 | 0.00 | 0.10 | 99 | 1015.0 |
| 20260507221102 | -17 | 80 | 0.0 | 0.0 | 0.00 | 0.00 | 0.10 | 99 | 1014.7 |
| 20260507220602 | -17 | 79 | 0.0 | 0.0 | 0.00 | 0.00 | 0.10 | 99 | 1014.8 |
| 20260507215603 | -17 | 79 | 0.0 | 1.6 | 0.00 | 0.00 | 0.10 | 99 | 1014.7 |
| 20260507215103 | -17 | 79 | 0.0 | 0.0 | 0.00 | 0.00 | 0.10 | 99 | 1014.6 |
| 20260507214603 | -17 | 79 | 0.0 | 0.0 | 0.00 | 0.00 | 0.10 | 99 | 1014.7 |
| 20260507214102 | -17 | 80 | 0.0 | 1.6 | 0.00 | 0.00 | 0.10 | 99 | 1014.7 |
| 20260507213603 | -17 | 79 | 0.0 | 0.0 | 0.00 | 0.00 | 0.10 | 99 | 1014.7 |
| 20260507213102 | -17 | 89 | 1.6 | 1.6 | 0.00 | 0.00 | 0.10 | 99 | 1014.7 |
| 20260507212103 | -17 | 80 | 0.0 | 0.0 | 0.00 | 0.00 | 0.10 | 99 | 1014.6 |
| 20260507211103 | -17 | 84 | 0.0 | 1.6 | 0.00 | 0.00 | 0.10 | 99 | 1014.6 |
| 20260507210604 | -17 | 59 | 0.0 | 0.0 | 0.00 | 0.00 | 0.10 | 99 | 1014.7 |
| 20260507205602 | -17 | 66 | 0.0 | 1.6 | 0.00 | 0.00 | 0.10 | 99 | 1014.7 |
| 20260507205102 | -17 | 30 | 0.0 | 1.6 | 0.00 | 0.00 | 0.10 | 99 | 1014.7 |
| 20260507204603 | -17 | 40 | 0.0 | 1.6 | 0.00 | 0.00 | 0.10 | 99 | 1014.6 |
| 20260507204103 | -17 | 81 | 1.6 | 1.6 | 0.00 | 0.00 | 0.10 | 99 | 1014.7 |
| 20260507203603 | -17 | 1 | 0.0 | 1.6 | 0.00 | 0.00 | 0.10 | 99 | 1014.7 |
| 20260507203103 | -17 | 98 | 0.0 | 1.6 | 0.00 | 0.00 | 0.10 | 99 | 1014.7 |
| 20260507202603 | -17 | 120 | 0.0 | 1.6 | 0.00 | 0.00 | 0.10 | 99 | 1014.3 |
| 20260507202103 | -17 | 251 | 0.0 | 1.6 | 0.00 | 0.00 | 0.10 | 99 | 1014.3 |
| 20260507201603 | -17 | 248 | 1.6 | 1.6 | 0.00 | 0.00 | 0.10 | 99 | 1014.6 |
| 20260507201104 | -17 | 298 | 1.6 | 1.6 | 0.00 | 0.00 | 0.10 | 99 | 1014.2 |
| 20260507200602 | -17 | 358 | 0.0 | 0.0 | 0.00 | 0.00 | 0.10 | 99 | 1014.3 |
| 20260507195602 | -17 | 270 | 1.6 | 3.2 | 0.00 | 0.00 | 0.10 | 99 | 1014.2 |
| 20260507195102 | -17 | 39 | 0.0 | 1.6 | 0.00 | 0.00 | 0.10 | 99 | 1014.2 |
| 20260507194604 | -17 | 39 | 0.0 | 0.0 | 0.00 | 0.00 | 0.10 | 99 | 1014.1 |
| 20260507194103 | -17 | 150 | 0.0 | 1.6 | 0.00 | 0.00 | 0.10 | 99 | 1014.2 |
| 20260507193602 | -17 | 135 | 1.6 | 1.6 | 0.00 | 0.00 | 0.10 | 99 | 1014.3 |
| 20260507192603 | -17 | 169 | 0.0 | 0.0 | 0.00 | 0.00 | 0.10 | 99 | 1014.2 |
| 20260507192102 | -17 | 66 | 0.0 | 0.0 | 0.00 | 0.00 | 0.10 | 99 | 1014.2 |
| 20260507191603 | -17 | 67 | 0.0 | 1.6 | 0.00 | 0.00 | 0.10 | 99 | 1014.2 |
| 20260507191102 | -17 | 93 | 1.6 | 1.6 | 0.00 | 0.00 | 0.10 | 99 | 1013.8 |
| 20260507190604 | -17 | 359 | 0.0 | 0.0 | 0.00 | 0.00 | 0.10 | 99 | 1014.0 |
| 20260507185603 | -17 | 309 | 1.6 | 3.2 | 0.00 | 0.00 | 0.10 | 99 | 1014.0 |
| 20260507185102 | -17 | 356 | 0.0 | 1.6 | 0.00 | 0.00 | 0.10 | 99 | 1014.1 |
| 20260507184603 | -17 | 2 | 1.6 | 1.6 | 0.00 | 0.00 | 0.10 | 99 | 1014.0 |
| 20260507184102 | -17 | 183 | 0.0 | 0.0 | 0.00 | 0.00 | 0.10 | 99 | 1014.0 |
| 20260507183603 | -17 | 183 | 0.0 | 1.6 | 0.00 | 0.00 | 0.10 | 99 | 1014.1 |
| 20260507183103 | -17 | 181 | 1.6 | 3.2 | 0.00 | 0.00 | 0.10 | 99 | 1014.0 |
| 20260507182602 | -17 | 96 | 0.0 | 1.6 | 0.00 | 0.00 | 0.10 | 99 | 1014.0 |
| 20260507182103 | -17 | 83 | 0.0 | 1.6 | 0.00 | 0.00 | 0.10 | 99 | 1014.0 |
| 20260507181603 | -17 | 130 | 1.6 | 1.6 | 0.00 | 0.00 | 0.10 | 99 | 1014.1 |
| 20260507181103 | -17 | 20 | 0.0 | 0.0 | 0.00 | 0.00 | 0.10 | 99 | 1013.7 |
| 20260507180603 | -17 | 20 | 0.0 | 1.6 | 0.00 | 0.00 | 0.10 | 98 | 1013.7 |
| 20260507175603 | -17 | 88 | 0.0 | 0.0 | 0.00 | 0.00 | 0.10 | 98 | 1014.1 |
| 20260507175103 | -17 | 90 | 1.6 | 1.6 | 0.00 | 0.00 | 0.10 | 97 | 1013.7 |
| 20260507174603 | -17 | 82 | 0.0 | 0.0 | 0.00 | 0.00 | 0.10 | 97 | 1013.8 |
| 20260507173104 | -17 | 27 | 1.6 | 1.6 | 0.00 | 0.00 | 0.10 | 95 | 1013.8 |
| 20260507172602 | -17 | 63 | 0.0 | 0.0 | 0.00 | 0.00 | 0.10 | 95 | 1013.8 |
| 20260507172103 | -17 | 206 | 0.0 | 1.6 | 0.00 | 0.00 | 0.10 | 94 | 1013.7 |
| 20260507171603 | -17 | 180 | 1.6 | 3.2 | 0.00 | 0.00 | 0.10 | 94 | 1013.8 |
| 20260507171103 | -17 | 116 | 1.6 | 3.2 | 0.00 | 0.00 | 0.10 | 93 | 1013.8 |
| 20260507170602 | -17 | 244 | 3.2 | 3.2 | 0.00 | 0.00 | 0.10 | 92 | 1013.7 |
| 20260507165602 | -17 | 191 | 3.2 | 3.2 | 0.00 | 0.00 | 0.10 | 92 | 1013.6 |
| 20260507165102 | -17 | 201 | 3.2 | 3.2 | 0.00 | 0.00 | 0.10 | 90 | 1013.5 |
| 20260507164602 | -17 | 191 | 3.2 | 4.8 | 0.00 | 0.00 | 0.10 | 90 | 1013.5 |
| 20260507164104 | -17 | 187 | 3.2 | 4.8 | 0.00 | 0.00 | 0.10 | 90 | 1013.7 |
| 20260507163603 | -17 | 189 | 3.2 | 4.8 | 0.00 | 0.00 | 0.10 | 87 | 1013.7 |
| 20260507163104 | -17 | 161 | 3.2 | 4.8 | 0.00 | 0.00 | 0.10 | 86 | 1013.7 |
| 20260507162603 | -17 | 159 | 1.6 | 1.6 | 0.00 | 0.00 | 0.10 | 85 | 1013.7 |
| 20260507162103 | -17 | 163 | 4.8 | 6.4 | 0.00 | 0.00 | 0.10 | 84 | 1013.7 |
| 20260507161103 | -17 | 162 | 1.6 | 1.6 | 0.00 | 0.00 | 0.10 | 85 | 1013.8 |
| 20260507160603 | -17 | 180 | 4.8 | 4.8 | 0.00 | 0.00 | 0.10 | 84 | 1013.6 |
| 20260507160103 | -17 | 201 | 4.8 | 8.0 | 0.00 | 0.00 | 0.10 | 83 | 1013.7 |
| 20260507155603 | -17 | 323 | 0.0 | 0.0 | 0.00 | 0.00 | 0.10 | 82 | 1013.8 |
| 20260507155104 | -17 | 328 | 1.6 | 1.6 | 0.00 | 0.00 | 0.10 | 79 | 1013.8 |
| 20260507154603 | -17 | 27 | 0.0 | 1.6 | 0.00 | 0.00 | 0.10 | 83 | 1013.7 |
| 20260507154104 | -17 | 137 | 3.2 | 4.8 | 0.00 | 0.00 | 0.10 | 83 | 1014.0 |
| 20260507153603 | -17 | 107 | 3.2 | 3.2 | 0.00 | 0.00 | 0.10 | 85 | 1014.0 |
| 20260507153102 | -17 | 323 | 0.0 | 0.0 | 0.00 | 0.00 | 0.10 | 85 | 1013.8 |
| 20260507152606 | -17 | 180 | 6.4 | 6.4 | 0.00 | 0.00 | 0.10 | 86 | 1014.1 |
| 20260507152102 | -17 | 163 | 6.4 | 8.0 | 0.00 | 0.00 | 0.10 | 86 | 1014.0 |
| 20260507151602 | -17 | 193 | 3.2 | 6.4 | 0.00 | 0.00 | 0.10 | 86 | 1014.0 |
| 20260507151102 | -17 | 73 | 3.2 | 4.8 | 0.00 | 0.00 | 0.10 | 85 | 1013.7 |
| 20260507150602 | -17 | 101 | 3.2 | 4.8 | 0.00 | 0.00 | 0.10 | 84 | 1013.7 |
| 20260507145603 | -17 | 159 | 6.4 | 8.0 | 0.00 | 0.00 | 0.10 | 84 | 1013.6 |
| 20260507145103 | -17 | 180 | 3.2 | 6.4 | 0.00 | 0.00 | 0.10 | 86 | 1014.0 |
| 20260507144602 | -17 | 110 | 1.6 | 1.6 | 0.00 | 0.00 | 0.10 | 85 | 1014.0 |
| 20260507144103 | -17 | 190 | 4.8 | 4.8 | 0.00 | 0.00 | 0.10 | 85 | 1013.8 |
| 20260507143603 | -17 | 157 | 1.6 | 3.2 | 0.00 | 0.00 | 0.10 | 83 | 1014.0 |
| 20260507143103 | -17 | 171 | 1.6 | 3.2 | 0.00 | 0.00 | 0.10 | 84 | 1014.0 |
| 20260507142602 | -17 | 150 | 3.2 | 4.8 | 0.00 | 0.00 | 0.10 | 84 | 1013.8 |
| 20260507142103 | -17 | 49 | 3.2 | 8.0 | 0.00 | 0.00 | 0.10 | 84 | 1014.1 |
| 20260507141602 | -17 | 173 | 6.4 | 8.0 | 0.00 | 0.00 | 0.10 | 85 | 1014.1 |
| 20260507141102 | -17 | 205 | 3.2 | 4.8 | 0.00 | 0.00 | 0.10 | 85 | 1014.0 |
| 20260507140603 | -17 | 194 | 1.6 | 3.2 | 0.00 | 0.00 | 0.10 | 85 | 1014.0 |
| 20260507135603 | -17 | 94 | 6.4 | 8.0 | 0.00 | 0.00 | 0.10 | 85 | 1014.2 |
| 20260507135103 | -17 | 202 | 6.4 | 8.0 | 0.00 | 0.00 | 0.10 | 85 | 1014.2 |
| 20260507134603 | -17 | 140 | 1.6 | 3.2 | 0.00 | 0.00 | 0.10 | 86 | 1014.1 |
| 20260507134103 | -17 | 167 | 3.2 | 4.8 | 0.00 | 0.00 | 0.10 | 85 | 1014.1 |
| 20260507133603 | -17 | 137 | 3.2 | 4.8 | 0.00 | 0.00 | 0.10 | 86 | 1014.2 |
| 20260507133102 | -17 | 175 | 4.8 | 6.4 | 0.00 | 0.00 | 0.10 | 85 | 1014.2 |
| 20260507132603 | -17 | 160 | 4.8 | 6.4 | 0.00 | 0.00 | 0.10 | 84 | 1014.2 |
| 20260507132102 | -17 | 200 | 3.2 | 6.4 | 0.00 | 0.00 | 0.10 | 83 | 1014.0 |
| 20260507131603 | -17 | 184 | 4.8 | 8.0 | 0.00 | 0.00 | 0.10 | 85 | 1014.1 |
| 20260507131102 | -17 | 101 | 1.6 | 3.2 | 0.00 | 0.00 | 0.10 | 85 | 1014.2 |
| 20260507130603 | -17 | 173 | 6.4 | 8.0 | 0.00 | 0.00 | 0.10 | 86 | 1014.2 |
| 20260507125602 | -17 | 163 | 8.0 | 9.7 | 0.00 | 0.00 | 0.10 | 86 | 1014.2 |
| 20260507125102 | -17 | 188 | 6.4 | 8.0 | 0.00 | 0.00 | 0.10 | 86 | 1014.2 |
| 20260507124603 | -17 | 209 | 6.4 | 6.4 | 0.00 | 0.00 | 0.10 | 83 | 1014.1 |
| 20260507124103 | -17 | 188 | 6.4 | 9.7 | 0.00 | 0.00 | 0.10 | 83 | 1014.2 |
| 20260507123603 | -17 | 159 | 12.9 | 16.1 | 0.00 | 0.00 | 0.10 | 80 | 1014.2 |
| 20260507123103 | -17 | 153 | 6.4 | 8.0 | 0.00 | 0.00 | 0.10 | 81 | 1014.2 |
| 20260507122602 | -17 | 167 | 6.4 | 8.0 | 0.00 | 0.00 | 0.10 | 82 | 1014.2 |
| 20260507122103 | -17 | 189 | 6.4 | 8.0 | 0.00 | 0.00 | 0.10 | 82 | 1014.2 |
| 20260507121602 | -17 | 190 | 9.7 | 9.7 | 0.00 | 0.00 | 0.10 | 82 | 1014.3 |
| 20260507121103 | -17 | 199 | 9.7 | 12.9 | 0.00 | 0.00 | 0.10 | 82 | 1014.1 |
| 20260507120602 | -17 | 143 | 4.8 | 6.4 | 0.00 | 0.00 | 0.10 | 81 | 1014.1 |
| 20260507115603 | -17 | 183 | 11.3 | 16.1 | 0.00 | 0.00 | 0.10 | 81 | 1014.1 |
| 20260507115102 | -17 | 173 | 6.4 | 6.4 | 0.00 | 0.00 | 0.10 | 82 | 1014.0 |
| 20260507114603 | -17 | 176 | 6.4 | 9.7 | 0.00 | 0.00 | 0.10 | 83 | 1014.2 |
| 20260507114102 | -17 | 202 | 17.7 | 20.9 | 0.00 | 0.00 | 0.10 | 80 | 1014.2 |
| 20260507113603 | -17 | 123 | 9.7 | 14.5 | 0.00 | 0.00 | 0.10 | 80 | 1014.2 |
| 20260507113103 | -17 | 153 | 16.1 | 17.7 | 0.00 | 0.00 | 0.10 | 78 | 1014.6 |
| 20260507112603 | -17 | 148 | 8.0 | 12.9 | 0.00 | 0.00 | 0.10 | 78 | 1014.2 |
| 20260507112102 | -17 | 210 | 9.7 | 12.9 | 0.00 | 0.00 | 0.10 | 82 | 1014.3 |
| 20260507111602 | -17 | 224 | 12.9 | 17.7 | 0.00 | 0.00 | 0.10 | 82 | 1014.2 |
| 20260507111102 | -17 | 180 | 9.7 | 12.9 | 0.00 | 0.00 | 0.10 | 77 | 1014.1 |
| 20260507110602 | -17 | 178 | 9.7 | 12.9 | 0.00 | 0.00 | 0.10 | 79 | 1014.2 |
| 20260507105602 | -17 | 182 | 6.4 | 8.0 | 0.00 | 0.00 | 0.10 | 78 | 1014.3 |
| 20260507105102 | -17 | 179 | 11.3 | 14.5 | 0.00 | 0.00 | 0.10 | 79 | 1014.3 |
| 20260507104603 | -17 | 103 | 9.7 | 17.7 | 0.00 | 0.00 | 0.10 | 83 | 1014.2 |
| 20260507104103 | -17 | 163 | 11.3 | 12.9 | 0.00 | 0.00 | 0.10 | 85 | 1014.3 |
| 20260507103603 | -17 | 187 | 9.7 | 14.5 | 0.00 | 0.00 | 0.10 | 81 | 1014.3 |
| 20260507103103 | -17 | 101 | 8.0 | 16.1 | 0.00 | 0.00 | 0.10 | 82 | 1014.3 |
| 20260507102603 | -17 | 159 | 11.3 | 14.5 | 0.00 | 0.00 | 0.10 | 83 | 1014.5 |
| 20260507102102 | -17 | 76 | 6.4 | 8.0 | 0.00 | 0.00 | 0.10 | 81 | 1014.6 |
| 20260507101602 | -17 | 140 | 6.4 | 14.5 | 0.00 | 0.00 | 0.10 | 80 | 1014.3 |
| 20260507101103 | -17 | 125 | 11.3 | 17.7 | 0.00 | 0.00 | 0.10 | 80 | 1014.3 |
| 20260507100603 | -17 | 161 | 8.0 | 9.7 | 0.00 | 0.00 | 0.10 | 80 | 1014.2 |
| 20260507095602 | -17 | 174 | 11.3 | 12.9 | 0.00 | 0.00 | 0.10 | 78 | 1014.5 |
| 20260507095103 | -17 | 103 | 3.2 | 4.8 | 0.00 | 0.00 | 0.10 | 78 | 1014.2 |
| 20260507094603 | -17 | 132 | 9.7 | 14.5 | 0.00 | 0.00 | 0.10 | 80 | 1014.2 |
| 20260507094103 | -17 | 171 | 11.3 | 12.9 | 0.00 | 0.00 | 0.10 | 80 | 1014.3 |
| 20260507093603 | -17 | 182 | 11.3 | 14.5 | 0.00 | 0.00 | 0.10 | 78 | 1014.2 |
| 20260507093103 | -17 | 190 | 12.9 | 14.5 | 0.00 | 0.00 | 0.10 | 81 | 1014.3 |
| 20260507092603 | -17 | 190 | 8.0 | 9.7 | 0.00 | 0.00 | 0.10 | 80 | 1014.2 |
| 20260507092102 | -17 | 198 | 12.9 | 16.1 | 0.00 | 0.00 | 0.10 | 81 | 1014.6 |
| 20260507091602 | -17 | 177 | 12.9 | 17.7 | 0.00 | 0.00 | 0.10 | 82 | 1014.3 |
| 20260507091103 | -17 | 121 | 11.3 | 14.5 | 0.00 | 0.00 | 0.10 | 80 | 1014.3 |
| 20260507090602 | -17 | 175 | 9.7 | 12.9 | 0.00 | 0.00 | 0.10 | 84 | 1014.2 |
| 20260507085603 | -17 | 177 | 12.9 | 14.5 | 0.00 | 0.00 | 0.10 | 84 | 1014.2 |
| 20260507085103 | -17 | 169 | 6.4 | 8.0 | 0.00 | 0.00 | 0.10 | 83 | 1014.2 |
| 20260507084603 | -17 | 194 | 12.9 | 17.7 | 0.00 | 0.00 | 0.10 | 84 | 1014.2 |
| 20260507084102 | -17 | 163 | 8.0 | 9.7 | 0.00 | 0.00 | 0.10 | 87 | 1014.2 |
| 20260507083603 | -17 | 196 | 6.4 | 6.4 | 0.00 | 0.00 | 0.10 | 87 | 1014.0 |
| 20260507083102 | -17 | 83 | 4.8 | 8.0 | 0.00 | 0.00 | 0.10 | 88 | 1014.0 |
| 20260507082603 | -17 | 86 | 3.2 | 3.2 | 0.00 | 0.00 | 0.10 | 87 | 1013.7 |
| 20260507082103 | -17 | 64 | 1.6 | 1.6 | 0.00 | 0.00 | 0.10 | 90 | 1013.7 |
| 20260507081602 | -17 | 221 | 1.6 | 1.6 | 0.00 | 0.00 | 0.10 | 89 | 1014.0 |
| 20260507081102 | -17 | 342 | 0.0 | 1.6 | 0.00 | 0.00 | 0.10 | 93 | 1013.7 |
| 20260507080603 | -17 | 7 | 4.8 | 6.4 | 0.00 | 0.00 | 0.10 | 94 | 1014.0 |
| 20260507080103 | -17 | 26 | 6.4 | 8.0 | 0.00 | 0.00 | 0.10 | 96 | 1013.7 |
| 20260507075603 | -17 | 53 | 0.0 | 0.0 | 0.08 | 0.00 | 0.10 | 99 | 1013.7 |
| 20260507075102 | -17 | 78 | 0.0 | 0.0 | 0.08 | 0.00 | 0.10 | 99 | 1013.7 |
| 20260507074602 | -17 | 104 | 3.2 | 4.8 | 0.08 | 0.00 | 0.10 | 99 | 1013.8 |
| 20260507074103 | -17 | 99 | 0.0 | 1.6 | 0.08 | 0.00 | 0.10 | 99 | 1013.6 |
| 20260507073602 | -17 | 87 | 0.0 | 1.6 | 0.08 | 0.00 | 0.10 | 97 | 1013.7 |
| 20260507073102 | -17 | 155 | 3.2 | 4.8 | 0.05 | 0.00 | 0.08 | 95 | 1013.7 |
| 20260507072602 | -17 | 210 | 4.8 | 4.8 | 0.03 | 0.00 | 0.05 | 91 | 1013.6 |
| 20260507072103 | -17 | 213 | 1.6 | 1.6 | 0.00 | 0.00 | 0.03 | 87 | 1013.6 |
| 20260507071603 | -17 | 302 | 1.6 | 1.6 | 0.00 | 0.00 | 0.03 | 85 | 1013.6 |
| 20260507071103 | -17 | 12 | 0.0 | 1.6 | 0.00 | 0.00 | 0.03 | 84 | 1013.7 |
| 20260507070604 | -17 | 46 | 0.0 | 0.0 | 0.00 | 0.00 | 0.03 | 92 | 1013.7 |
| 20260507065602 | -17 | 74 | 0.0 | 1.6 | 0.00 | 0.00 | 0.03 | 96 | 1013.7 |
| 20260507065103 | -17 | 171 | 3.2 | 3.2 | 0.00 | 0.00 | 0.03 | 97 | 1013.7 |
| 20260507064602 | -17 | 165 | 4.8 | 6.4 | 0.00 | 0.00 | 0.03 | 96 | 1013.5 |
| 20260507064103 | -17 | 172 | 1.6 | 3.2 | 0.00 | 0.00 | 0.03 | 96 | 1013.5 |
| 20260507063603 | -17 | 45 | 0.0 | 0.0 | 0.00 | 0.00 | 0.03 | 93 | 1013.3 |
| 20260507063103 | -17 | 113 | 1.6 | 1.6 | 0.00 | 0.00 | 0.03 | 92 | 1013.2 |
| 20260507062602 | -17 | 101 | 1.6 | 1.6 | 0.00 | 0.00 | 0.03 | 89 | 1013.2 |
| 20260507062102 | -17 | 44 | 0.0 | 1.6 | 0.00 | 0.00 | 0.03 | 92 | 1013.2 |
| 20260507061602 | -17 | 36 | 0.0 | 0.0 | 0.00 | 0.00 | 0.03 | 95 | 1013.3 |
| 20260507061102 | -17 | 80 | 0.0 | 1.6 | 0.00 | 0.00 | 0.03 | 96 | 1013.2 |
| 20260507060603 | -17 | 73 | 0.0 | 1.6 | 0.00 | 0.00 | 0.03 | 98 | 1013.3 |
| 20260507055603 | -17 | 20 | 0.0 | 1.6 | 0.03 | 0.00 | 0.03 | 99 | 1013.2 |
| 20260507055103 | -17 | 195 | 0.0 | 0.0 | 0.03 | 0.00 | 0.03 | 99 | 1013.5 |
| 20260507054603 | -17 | 85 | 0.0 | 1.6 | 0.03 | 0.00 | 0.03 | 99 | 1013.3 |
| 20260507054102 | -17 | 43 | 0.0 | 0.0 | 0.03 | 0.00 | 0.03 | 99 | 1013.2 |
| 20260507053602 | -17 | 99 | 0.0 | 0.0 | 0.03 | 0.00 | 0.03 | 99 | 1013.1 |
| 20260507053103 | -17 | 58 | 0.0 | 1.6 | 0.03 | 0.00 | 0.03 | 99 | 1013.2 |
| 20260507052602 | -17 | 48 | 0.0 | 0.0 | 0.03 | 0.00 | 0.03 | 99 | 1013.0 |
| 20260507052103 | -17 | 47 | 0.0 | 0.0 | 0.03 | 0.00 | 0.03 | 99 | 1013.0 |
| 20260507051603 | -17 | 58 | 0.0 | 0.0 | 0.03 | 0.00 | 0.03 | 99 | 1012.8 |
| 20260507051102 | -17 | 173 | 1.6 | 1.6 | 0.03 | 0.00 | 0.03 | 99 | 1012.8 |
| 20260507050602 | -17 | 84 | 0.0 | 1.6 | 0.03 | 0.00 | 0.03 | 99 | 1012.8 |
| 20260507045603 | -17 | 180 | 1.6 | 3.2 | 0.00 | 0.00 | 0.00 | 99 | 1012.7 |
| 20260507045102 | -17 | 88 | 0.0 | 0.0 | 0.00 | 0.00 | 0.00 | 99 | 1012.7 |
| 20260507044602 | -17 | 123 | 0.0 | 1.6 | 0.00 | 0.00 | 0.00 | 99 | 1012.7 |
| 20260507044102 | -17 | 130 | 0.0 | 0.0 | 0.00 | 0.00 | 0.00 | 99 | 1012.7 |
| 20260507043602 | -17 | 178 | 3.2 | 4.8 | 0.00 | 0.00 | 0.00 | 99 | 1012.7 |
| 20260507043103 | -17 | 47 | 0.0 | 0.0 | 0.00 | 0.00 | 0.00 | 99 | 1012.7 |
| 20260507042603 | -17 | 160 | 1.6 | 1.6 | 0.00 | 0.00 | 0.00 | 99 | 1012.7 |
| 20260507042102 | -17 | 193 | 3.2 | 3.2 | 0.00 | 0.00 | 0.00 | 99 | 1012.2 |
| 20260507041603 | -17 | 89 | 0.0 | 1.6 | 0.00 | 0.00 | 0.00 | 99 | 1012.6 |
| 20260507041103 | -17 | 204 | 1.6 | 3.2 | 0.00 | 0.00 | 0.00 | 99 | 1012.3 |
| 20260507040603 | -17 | 61 | 0.0 | 0.0 | 0.00 | 0.00 | 0.00 | 99 | 1012.7 |
| 20260507035603 | -17 | 79 | 0.0 | 0.0 | 0.00 | 0.00 | 0.00 | 99 | 1012.7 |
| 20260507035102 | -17 | 79 | 0.0 | 0.0 | 0.00 | 0.00 | 0.00 | 99 | 1012.6 |
| 20260507034602 | -17 | 183 | 1.6 | 3.2 | 0.00 | 0.00 | 0.00 | 99 | 1012.7 |
| 20260507034102 | -17 | 185 | 1.6 | 1.6 | 0.00 | 0.00 | 0.00 | 99 | 1012.6 |
| 20260507033603 | -17 | 79 | 0.0 | 0.0 | 0.00 | 0.00 | 0.00 | 99 | 1012.5 |
| 20260507032603 | -17 | 78 | 0.0 | 0.0 | 0.00 | 0.00 | 0.00 | 99 | 1012.5 |
| 20260507032103 | -17 | 78 | 0.0 | 0.0 | 0.00 | 0.00 | 0.00 | 99 | 1012.5 |
| 20260507031602 | -17 | 78 | 0.0 | 0.0 | 0.00 | 0.00 | 0.00 | 99 | 1012.3 |
| 20260507031103 | -17 | 78 | 0.0 | 0.0 | 0.00 | 0.00 | 0.00 | 99 | 1012.6 |
| 20260507030603 | -17 | 177 | 1.6 | 3.2 | 0.00 | 0.00 | 0.00 | 99 | 1012.2 |
| 20260507025603 | -17 | 185 | 1.6 | 1.6 | 0.00 | 0.00 | 0.00 | 99 | 1012.3 |
| 20260507025103 | -17 | 62 | 0.0 | 0.0 | 0.00 | 0.00 | 0.00 | 99 | 1012.3 |
| 20260507024602 | -17 | 183 | 1.6 | 3.2 | 0.00 | 0.00 | 0.00 | 99 | 1012.2 |
| 20260507024102 | -17 | 60 | 0.0 | 0.0 | 0.00 | 0.00 | 0.00 | 99 | 1012.5 |
| 20260507023602 | -17 | 61 | 0.0 | 0.0 | 0.00 | 0.00 | 0.00 | 99 | 1012.3 |
| 20260507023103 | -17 | 60 | 0.0 | 0.0 | 0.00 | 0.00 | 0.00 | 99 | 1012.6 |
| 20260507022602 | -17 | 83 | 0.0 | 0.0 | 0.00 | 0.00 | 0.00 | 99 | 1012.2 |
| 20260507022102 | -17 | 85 | 0.0 | 0.0 | 0.00 | 0.00 | 0.00 | 99 | 1012.5 |
| 20260507021603 | -17 | 86 | 0.0 | 1.6 | 0.00 | 0.00 | 0.00 | 99 | 1012.5 |
| 20260507021103 | -17 | 110 | 0.0 | 1.6 | 0.00 | 0.00 | 0.00 | 99 | 1012.3 |
| 20260507020603 | -17 | 75 | 0.0 | 0.0 | 0.00 | 0.00 | 0.00 | 99 | 1012.5 |
| 20260507015602 | -17 | 84 | 0.0 | 0.0 | 0.00 | 0.00 | 0.00 | 99 | 1012.3 |
| 20260507015103 | -17 | 78 | 0.0 | 0.0 | 0.00 | 0.00 | 0.00 | 99 | 1012.6 |
| 20260507014604 | -17 | 78 | 0.0 | 0.0 | 0.00 | 0.00 | 0.00 | 99 | 1012.5 |
| 20260507014103 | -17 | 236 | 0.0 | 1.6 | 0.00 | 0.00 | 0.00 | 99 | 1012.5 |
| 20260507013602 | -17 | 182 | 1.6 | 3.2 | 0.00 | 0.00 | 0.00 | 99 | 1012.2 |
| 20260507012602 | -17 | 101 | 0.0 | 0.0 | 0.00 | 0.00 | 0.00 | 99 | 1012.5 |
| 20260507012103 | -17 | 61 | 0.0 | 0.0 | 0.00 | 0.00 | 0.00 | 99 | 1012.6 |
| 20260507011603 | -17 | 9 | 0.0 | 0.0 | 0.00 | 0.00 | 0.00 | 99 | 1012.5 |
| 20260507011103 | -17 | 66 | 0.0 | 0.0 | 0.00 | 0.00 | 0.00 | 99 | 1012.3 |
| 20260507010603 | -17 | 63 | 0.0 | 0.0 | 0.00 | 0.00 | 0.00 | 99 | 1012.6 |
| 20260507010104 | -17 | 73 | 0.0 | 0.0 | 0.00 | 0.00 | 0.00 | 99 | 1012.3 |
| 20260507005602 | -17 | 115 | 0.0 | 1.6 | 0.00 | 0.00 | 0.00 | 99 | 1012.6 |
| 20260507005102 | -17 | 179 | 0.0 | 1.6 | 0.00 | 0.00 | 0.00 | 99 | 1012.3 |
| 20260507004603 | -17 | 72 | 0.0 | 0.0 | 0.00 | 0.00 | 0.00 | 99 | 1012.5 |
| 20260507004103 | -17 | 160 | 1.6 | 1.6 | 0.00 | 0.00 | 0.00 | 99 | 1012.6 |
| 20260507003602 | -17 | 173 | 1.6 | 3.2 | 0.00 | 0.00 | 0.00 | 99 | 1012.7 |
| 20260507003102 | -17 | 67 | 0.0 | 0.0 | 0.00 | 0.00 | 0.00 | 99 | 1012.7 |
| 20260507002602 | -17 | 123 | 1.6 | 1.6 | 0.00 | 0.00 | 0.00 | 99 | 1012.6 |
| 20260507002103 | -17 | 203 | 0.0 | 1.6 | 0.00 | 0.00 | 0.00 | 99 | 1012.3 |
| 20260507001602 | -17 | 238 | 0.0 | 1.6 | 0.00 | 0.00 | 0.00 | 99 | 1012.7 |
| 20260507001102 | -17 | 171 | 0.0 | 1.6 | 0.00 | 0.00 | 0.00 | 99 | 1012.5 |
| 20260507000602 | -17 | 76 | 0.0 | 1.6 | 0.00 | 0.00 | 0.00 | 99 | 1012.6 |
| 20260506235602 | -17 | 94 | 0.0 | 1.6 | 0.00 | 0.00 | 0.00 | 99 | 1012.7 |
| 20260506235102 | -17 | 81 | 0.0 | 0.0 | 0.00 | 0.00 | 0.00 | 99 | 1012.7 |
| 20260506234603 | -17 | 234 | 0.0 | 1.6 | 0.00 | 0.00 | 0.00 | 99 | 1012.7 |
| 20260506234102 | -17 | 102 | 0.0 | 0.0 | 0.00 | 0.00 | 0.00 | 99 | 1012.8 |
| 20260506233602 | -17 | 84 | 0.0 | 0.0 | 0.00 | 0.00 | 0.00 | 99 | 1012.6 |
| 20260506233103 | -17 | 130 | 0.0 | 1.6 | 0.00 | 0.00 | 0.00 | 99 | 1012.8 |
| 20260506232603 | -17 | 103 | 0.0 | 1.6 | 0.00 | 0.00 | 0.00 | 99 | 1012.7 |
| 20260506232102 | -17 | 37 | 0.0 | 0.0 | 0.00 | 0.00 | 0.00 | 99 | 1012.7 |
| 20260506231603 | -17 | 27 | 0.0 | 0.0 | 0.00 | 0.00 | 0.00 | 99 | 1012.7 |
| 20260506231103 | -17 | 15 | 0.0 | 0.0 | 0.00 | 0.00 | 0.00 | 99 | 1012.7 |
| 20260506230603 | -17 | 125 | 1.6 | 1.6 | 0.00 | 0.00 | 0.00 | 99 | 1012.8 |
| 20260506225603 | -17 | 187 | 1.6 | 3.2 | 0.00 | 0.00 | 3.28 | 99 | 1012.7 |
| 20260506225103 | -17 | 70 | 0.0 | 0.0 | 0.00 | 0.00 | 3.28 | 99 | 1012.6 |